EZY31A EHAM-EGKK

Flight info

Callsign EZY31A
Flight time 0h 40m
Altitude 24000
Route IDRID L980 ABNED Z344 AMRIV Q63 ARREK Y4 TEBRA
Aircraft A20N/M-SDE2E3FGHIRWXY/LB1

Departure

Time 2026-04-29 19:26
Airport Amsterdam Airport Schiphol (EHAM)

Arrival

Time 2026-04-29 20:06
Airport London Gatwick Airport (EGKK)
Time Latitude Longitude Altitude Speed Heading
2026-04-29 19:00 52.30963 4.75300 0 ft 0 kts 148°
2026-04-29 19:15 52.30971 4.75291 0 ft 2 kts 148°
2026-04-29 19:15 52.30980 4.75283 0 ft 1 kts 149°
2026-04-29 19:15 52.30991 4.75267 0 ft 2 kts 121°
2026-04-29 19:15 52.30997 4.75245 0 ft 2 kts 98°
2026-04-29 19:16 52.30996 4.75221 0 ft 2 kts 74°
2026-04-29 19:16 52.30994 4.75209 0 ft 1 kts 60°
2026-04-29 19:16 52.30990 4.75200 0 ft 0 kts 59°
2026-04-29 19:20 52.30996 4.75216 0 ft 3 kts 59°
2026-04-29 19:20 52.31012 4.75259 0 ft 5 kts 58°
2026-04-29 19:20 52.31037 4.75321 0 ft 7 kts 57°
2026-04-29 19:20 52.31069 4.75403 0 ft 9 kts 57°
2026-04-29 19:21 52.31111 4.75490 0 ft 8 kts
2026-04-29 19:21 52.31183 4.75479 0 ft 11 kts 356°
2026-04-29 19:21 52.31269 4.75472 0 ft 13 kts 358°
2026-04-29 19:21 52.31362 4.75471 0 ft 13 kts
2026-04-29 19:22 52.31461 4.75472 0 ft 14 kts 355°
2026-04-29 19:22 52.31504 4.75394 0 ft 3 kts 265°
2026-04-29 19:22 52.31503 4.75292 0 ft 18 kts 269°
2026-04-29 19:22 52.31495 4.75026 0 ft 22 kts 269°
2026-04-29 19:23 52.31494 4.74871 0 ft 12 kts 265°
2026-04-29 19:23 52.31489 4.74758 0 ft 8 kts 268°
2026-04-29 19:23 52.31508 4.74666 0 ft 9 kts 333°
2026-04-29 19:23 52.31573 4.74651 0 ft 9 kts 359°
2026-04-29 19:24 52.31641 4.74679 0 ft 10 kts 37°
2026-04-29 19:24 52.31672 4.74767 0 ft 1 kts 87°
2026-04-29 19:24 52.31672 4.74770 0 ft 0 kts 91°
2026-04-29 19:24 52.31672 4.74772 0 ft 0 kts 91°
2026-04-29 19:25 52.31672 4.74789 0 ft 6 kts 91°
2026-04-29 19:25 52.31685 4.75245 0 ft 77 kts 90°
2026-04-29 19:26 52.31726 4.76483 0 ft 139 kts 85°
2026-04-29 19:26 52.31782 4.78247 335 ft 162 kts 87°
2026-04-29 19:26 52.31821 4.80022 1119 ft 158 kts 91°
2026-04-29 19:26 52.32016 4.81716 2016 ft 155 kts 70°
2026-04-29 19:27 52.32777 4.82956 2745 ft 170 kts 32°
2026-04-29 19:27 52.34015 4.83129 3317 ft 199 kts 353°
2026-04-29 19:27 52.35305 4.81941 3826 ft 225 kts 330°
2026-04-29 19:27 52.36734 4.80463 4274 ft 245 kts 339°
2026-04-29 19:28 52.38406 4.79216 5160 ft 249 kts 338°
2026-04-29 19:28 52.39924 4.77387 5901 ft 266 kts 321°
2026-04-29 19:28 52.41374 4.74955 6308 ft 285 kts 318°
2026-04-29 19:28 52.42856 4.72379 6394 ft 288 kts 318°
2026-04-29 19:29 52.44281 4.69640 6338 ft 292 kts 302°
2026-04-29 19:29 52.44775 4.66139 6373 ft 298 kts 264°
2026-04-29 19:29 52.44124 4.62767 6383 ft 296 kts 241°
2026-04-29 19:29 52.43092 4.59725 6367 ft 295 kts 238°
2026-04-29 19:30 52.42059 4.56638 6355 ft 296 kts 240°
2026-04-29 19:30 52.41102 4.53460 6362 ft 296 kts 243°
2026-04-29 19:30 52.40217 4.50253 6393 ft 296 kts 245°
2026-04-29 19:30 52.39413 4.47186 6389 ft 297 kts 246°
2026-04-29 19:31 52.38614 4.44055 6373 ft 296 kts 246°
2026-04-29 19:31 52.37789 4.40786 6333 ft 297 kts 246°
2026-04-29 19:31 52.36977 4.37563 6351 ft 296 kts 246°
2026-04-29 19:31 52.36154 4.34301 6364 ft 296 kts 245°
2026-04-29 19:32 52.35326 4.31018 6332 ft 297 kts 245°
2026-04-29 19:32 52.34528 4.27868 6318 ft 296 kts 245°
2026-04-29 19:32 52.33704 4.24623 6413 ft 301 kts 245°
2026-04-29 19:32 52.32894 4.21434 7104 ft 308 kts 245°
2026-04-29 19:33 52.32077 4.18232 8135 ft 306 kts 245°
2026-04-29 19:33 52.31123 4.15167 9017 ft 308 kts 237°
2026-04-29 19:33 52.29876 4.12231 9854 ft 311 kts 230°
2026-04-29 19:33 52.28518 4.09368 10674 ft 316 kts 230°
2026-04-29 19:34 52.27145 4.06442 11211 ft 331 kts 231°
2026-04-29 19:34 52.25703 4.03346 11617 ft 349 kts 231°
2026-04-29 19:34 52.24059 3.99810 12044 ft 369 kts 231°
2026-04-29 19:34 52.22278 3.95991 12425 ft 389 kts 231°
2026-04-29 19:35 52.20406 3.91986 12840 ft 406 kts 231°
2026-04-29 19:35 52.18509 3.87926 13548 ft 414 kts 231°
2026-04-29 19:35 52.16555 3.83753 14329 ft 418 kts 231°
2026-04-29 19:35 52.14592 3.79569 15079 ft 422 kts 231°
2026-04-29 19:36 52.12632 3.75399 15804 ft 425 kts 231°
2026-04-29 19:36 52.10641 3.71171 16485 ft 429 kts 231°
2026-04-29 19:36 52.08665 3.66983 17171 ft 432 kts 231°
2026-04-29 19:36 52.06685 3.62793 17778 ft 436 kts 231°
2026-04-29 19:37 52.04700 3.58597 18466 ft 438 kts 231°
2026-04-29 19:37 52.03400 3.55857 18879 ft 440 kts 231°
2026-04-29 19:37 52.00699 3.50163 19755 ft 444 kts 231°
2026-04-29 19:37 51.98621 3.45798 20373 ft 448 kts 231°
2026-04-29 19:38 51.96513 3.41373 20990 ft 451 kts 231°
2026-04-29 19:38 51.94658 3.36809 21541 ft 456 kts 243°
2026-04-29 19:38 51.93386 3.31996 22104 ft 459 kts 248°
2026-04-29 19:38 51.92268 3.27127 22643 ft 462 kts 249°
2026-04-29 19:39 51.91122 3.22139 23142 ft 464 kts 248°
2026-04-29 19:39 51.89955 3.17232 23618 ft 467 kts 247°
2026-04-29 19:39 51.88731 3.12244 24077 ft 470 kts 247°
2026-04-29 19:39 51.87489 3.07286 24310 ft 472 kts 246°
2026-04-29 19:40 51.86219 3.02275 24310 ft 470 kts 246°
2026-04-29 19:40 51.84964 2.97368 24311 ft 470 kts 246°
2026-04-29 19:40 51.83705 2.92471 24305 ft 470 kts 246°
2026-04-29 19:40 51.82445 2.87582 24304 ft 470 kts 246°
2026-04-29 19:41 51.81156 2.82597 24304 ft 471 kts 246°
2026-04-29 19:41 51.79794 2.77343 24301 ft 471 kts 246°
2026-04-29 19:41 51.78411 2.72013 24303 ft 471 kts 246°
2026-04-29 19:41 51.76997 2.66584 24302 ft 470 kts 246°
2026-04-29 19:42 51.75580 2.61153 24300 ft 470 kts 246°
2026-04-29 19:42 51.74633 2.57531 24299 ft 470 kts 246°
2026-04-29 19:42 51.72719 2.50225 24296 ft 470 kts 246°
2026-04-29 19:42 51.71304 2.44842 24296 ft 470 kts 246°
2026-04-29 19:43 51.69881 2.39445 24292 ft 470 kts 246°
2026-04-29 19:43 51.68493 2.34190 24288 ft 470 kts 245°
2026-04-29 19:43 51.67120 2.28999 24256 ft 466 kts 245°
2026-04-29 19:43 51.65742 2.23801 23807 ft 460 kts 245°
2026-04-29 19:44 51.64431 2.18867 23034 ft 459 kts 245°
2026-04-29 19:44 51.63089 2.13837 22593 ft 456 kts 245°
2026-04-29 19:44 51.61739 2.08780 22315 ft 457 kts 245°
2026-04-29 19:44 51.60389 2.03737 22041 ft 456 kts 245°
2026-04-29 19:45 51.59044 1.98722 21768 ft 454 kts 245°
2026-04-29 19:45 51.57678 1.93638 21492 ft 452 kts 245°
2026-04-29 19:45 51.56327 1.88624 21217 ft 451 kts 245°
2026-04-29 19:45 51.54982 1.83639 20949 ft 448 kts 245°
2026-04-29 19:46 51.53622 1.78601 20342 ft 446 kts 245°
2026-04-29 19:46 51.52306 1.73748 19246 ft 452 kts 245°
2026-04-29 19:46 51.50959 1.68799 18348 ft 452 kts 245°
2026-04-29 19:46 51.49625 1.63896 17667 ft 448 kts 245°
2026-04-29 19:47 51.48395 1.59069 17027 ft 444 kts 248°
2026-04-29 19:47 51.47259 1.54148 16386 ft 439 kts 249°
2026-04-29 19:47 51.46155 1.49302 15756 ft 434 kts 249°
2026-04-29 19:47 51.45014 1.44490 15208 ft 425 kts 244°
2026-04-29 19:48 51.43479 1.40279 14946 ft 413 kts 234°
2026-04-29 19:48 51.42314 1.37596 14770 ft 411 kts 232°
2026-04-29 19:48 51.39996 1.32384 14430 ft 409 kts 232°
2026-04-29 19:48 51.38264 1.28425 14166 ft 408 kts 232°
2026-04-29 19:49 51.36553 1.24443 13898 ft 406 kts 233°
2026-04-29 19:49 51.34929 1.20620 13651 ft 404 kts 233°
2026-04-29 19:49 51.33291 1.16746 13386 ft 402 kts 233°
2026-04-29 19:49 51.31601 1.12738 13123 ft 400 kts 233°
2026-04-29 19:50 51.29923 1.08756 12862 ft 399 kts 233°
2026-04-29 19:50 51.28247 1.04783 12592 ft 397 kts 233°
2026-04-29 19:50 51.26596 1.00874 12319 ft 395 kts 233°
2026-04-29 19:50 51.24942 0.96964 12053 ft 393 kts 233°
2026-04-29 19:51 51.23302 0.93093 11792 ft 391 kts 233°
2026-04-29 19:51 51.21656 0.89210 11517 ft 389 kts 233°
2026-04-29 19:51 51.20060 0.85453 11258 ft 388 kts 233°
2026-04-29 19:51 51.18496 0.81776 10998 ft 387 kts 233°
2026-04-29 19:52 51.16965 0.78179 10679 ft 377 kts 233°
2026-04-29 19:52 51.15434 0.74578 10409 ft 365 kts 233°
2026-04-29 19:52 51.13955 0.71110 10154 ft 353 kts 233°
2026-04-29 19:52 51.12495 0.67692 10012 ft 337 kts 233°
2026-04-29 19:53 51.11078 0.64377 9877 ft 323 kts 232°
2026-04-29 19:53 51.09887 0.61116 9695 ft 315 kts 248°
2026-04-29 19:53 51.09461 0.57462 9484 ft 308 kts 264°
2026-04-29 19:53 51.09314 0.53733 9082 ft 307 kts 266°
2026-04-29 19:54 51.09100 0.46356 8234 ft 305 kts 266°
2026-04-29 19:54 51.08994 0.42708 7823 ft 304 kts 266°
2026-04-29 19:54 51.08886 0.39011 7403 ft 303 kts 266°
2026-04-29 19:55 51.08779 0.35374 7228 ft 301 kts 266°
2026-04-29 19:55 51.08673 0.31700 7227 ft 302 kts 266°
2026-04-29 19:55 51.08569 0.28025 7224 ft 302 kts 266°
2026-04-29 19:55 51.08464 0.24292 7227 ft 302 kts 266°
2026-04-29 19:56 51.08362 0.20659 7024 ft 298 kts 266°
2026-04-29 19:56 51.08257 0.17041 6546 ft 300 kts 266°
2026-04-29 19:56 51.08146 0.13394 6117 ft 299 kts 266°
2026-04-29 19:56 51.08033 0.09758 5988 ft 299 kts 266°
2026-04-29 19:57 51.07921 0.06130 5990 ft 300 kts 266°
2026-04-29 19:57 51.07846 0.03665 5989 ft 300 kts 266°
2026-04-29 19:57 51.07705 -0.01123 5984 ft 299 kts 266°
2026-04-29 19:57 51.07612 -0.04437 5982 ft 300 kts 266°
2026-04-29 19:58 51.07520 -0.07725 5985 ft 300 kts 266°
2026-04-29 19:58 51.07429 -0.11031 5982 ft 300 kts 266°
2026-04-29 19:58 51.07337 -0.14347 5951 ft 297 kts 266°
2026-04-29 19:58 51.07250 -0.17618 5617 ft 296 kts 266°
2026-04-29 19:59 51.07165 -0.20848 5197 ft 297 kts 266°
2026-04-29 19:59 51.07082 -0.24115 4983 ft 295 kts 266°
2026-04-29 19:59 51.06999 -0.27395 4981 ft 297 kts 266°
2026-04-29 19:59 51.06917 -0.30636 4939 ft 295 kts 266°
2026-04-29 20:00 51.06838 -0.33857 4744 ft 286 kts 266°
2026-04-29 20:00 51.06766 -0.36960 4514 ft 274 kts 266°
2026-04-29 20:00 51.06704 -0.39896 4219 ft 265 kts 266°
2026-04-29 20:00 51.06727 -0.42789 3990 ft 255 kts 281°
2026-04-29 20:01 51.07408 -0.45240 3787 ft 241 kts 316°
2026-04-29 20:01 51.08698 -0.46698 3616 ft 216 kts 354°
2026-04-29 20:01 51.10041 -0.46754 3539 ft 177 kts 30°
2026-04-29 20:01 51.10928 -0.45670 3177 ft 155 kts 68°
2026-04-29 20:02 51.11301 -0.44137 2972 ft 149 kts 79°
2026-04-29 20:02 51.11582 -0.42529 2931 ft 150 kts 81°
2026-04-29 20:02 51.11824 -0.40974 2744 ft 143 kts 82°
2026-04-29 20:02 51.11973 -0.39944 2611 ft 139 kts 82°
2026-04-29 20:03 51.12238 -0.38031 2361 ft 128 kts 82°
2026-04-29 20:03 51.12421 -0.36666 2197 ft 124 kts 83°
2026-04-29 20:03 51.12604 -0.35300 2066 ft 125 kts 82°
2026-04-29 20:03 51.12790 -0.33914 1893 ft 122 kts 81°
2026-04-29 20:04 51.12971 -0.32575 1742 ft 123 kts 81°
2026-04-29 20:04 51.13150 -0.31239 1562 ft 124 kts 81°
2026-04-29 20:04 51.13332 -0.29887 1383 ft 125 kts 80°
2026-04-29 20:04 51.13513 -0.28546 1207 ft 124 kts 79°
2026-04-29 20:05 51.13694 -0.27214 1041 ft 124 kts 79°
2026-04-29 20:05 51.13878 -0.25866 875 ft 124 kts 78°
2026-04-29 20:05 51.14059 -0.24538 716 ft 123 kts 77°
2026-04-29 20:05 51.14241 -0.23203 547 ft 122 kts 77°
2026-04-29 20:06 51.14424 -0.21899 357 ft 120 kts 77°
2026-04-29 20:06 51.14588 -0.20609 244 ft 120 kts 74°
2026-04-29 20:06 51.14772 -0.19368 201 ft 99 kts 77°
2026-04-29 20:06 51.14868 -0.18665 201 ft 19 kts 79°
2026-04-29 20:07 51.14890 -0.18494 200 ft 15 kts 78°
2026-04-29 20:07 51.14914 -0.18331 200 ft 15 kts 76°
2026-04-29 20:07 51.14939 -0.18167 200 ft 15 kts 78°
2026-04-29 20:07 51.14965 -0.18006 201 ft 15 kts 66°
2026-04-29 20:08 51.15023 -0.17866 200 ft 13 kts 52°
2026-04-29 20:08 51.15054 -0.17800 201 ft 10 kts 53°
2026-04-29 20:08 51.15108 -0.17757 200 ft 4 kts 356°
2026-04-29 20:08 51.15144 -0.17764 200 ft 5 kts 353°
2026-04-29 20:09 51.15190 -0.17773 200 ft 7 kts 354°
2026-04-29 20:09 51.15237 -0.17795 200 ft 7 kts 287°
2026-04-29 20:09 51.15241 -0.17886 200 ft 8 kts 262°
2026-04-29 20:09 51.15226 -0.17991 200 ft 10 kts 257°
2026-04-29 20:10 51.15234 -0.18091 199 ft 9 kts 315°
2026-04-29 20:10 51.15300 -0.18131 199 ft 10 kts 352°
2026-04-29 20:10 51.15378 -0.18144 199 ft 8 kts 351°
2026-04-29 20:10 51.15437 -0.18153 198 ft 8 kts 13°
2026-04-29 20:11 51.15458 -0.18102 198 ft 2 kts 84°
2026-04-29 20:11 51.15459 -0.18075 198 ft 2 kts 83°
2026-04-29 20:11 51.15463 -0.18043 198 ft 3 kts 79°
2026-04-29 20:11 51.15469 -0.17995 198 ft 4 kts 77°
2026-04-29 20:12 51.15478 -0.17936 198 ft 6 kts 78°
2026-04-29 20:12 51.15485 -0.17880 198 ft 3 kts 78°
2026-04-29 20:12 51.15492 -0.17835 198 ft 4 kts 77°
2026-04-29 20:12 51.15494 -0.17815 198 ft 0 kts 76°
2026-04-29 20:13 51.15500 -0.17809 198 ft 1 kts 31°
2026-04-29 20:13 51.15508 -0.17805 198 ft 2 kts
2026-04-29 20:13 51.15527 -0.17807 198 ft 2 kts 353°
2026-04-29 20:13 51.15541 -0.17810 198 ft 2 kts 351°
2026-04-29 20:14 51.15551 -0.17813 198 ft 0 kts 349°
2026-04-29 20:14 51.15552 -0.17813 198 ft 0 kts 348°
2026-04-29 20:14 51.15554 -0.17814 198 ft 0 kts 347°
2026-04-29 20:14 51.15557 -0.17815 198 ft 0 kts 348°
2026-04-29 20:15 51.15559 -0.17816 198 ft 0 kts 348°